Le nostre stazioni meteo in Italia

Pubblicità
Il mio iltempo24.it
Fyvie castle, Gran Bretagna (99010): Temperatura & dewpoint: 05.12.2018 01:00:00 - 11.12.2018 01:00:00 (GMT)Fyvie castle, Gran Bretagna (99010): precipitazioni: 05.12.2018 01:00:00 - 11.12.2018 01:00:00 (GMT)
Data & Tempo tt [°C] td [°C] rr [mm]
11.12.2018 01:00:00 -1,4 -1,5 0,0
11.12.2018 00:00:00 -2,7 -2,8 0,0
10.12.2018 23:00:00 -3,5 -3,8 0,0
10.12.2018 22:00:00 -3,0 -3,3 0,0
10.12.2018 21:00:00 -2,5 -2,7 0,0
10.12.2018 20:00:00 -2,5 -2,8 0,0
10.12.2018 19:00:00 -2,3 -2,7 0,0
10.12.2018 18:00:00 -1,5 -2,2 0,0
10.12.2018 17:00:00 0,1 -1,6 0,0
10.12.2018 16:00:00 1,5 -0,7 0,0
10.12.2018 15:00:00 2,9 -0,3 0,0
10.12.2018 14:00:00 3,5 0,1 0,0
10.12.2018 13:00:00 3,5 0,4 0,0
10.12.2018 12:00:00 3,5 0,7 0,0
10.12.2018 11:00:00 3,5 0,7 0,0
10.12.2018 10:00:00 2,6 0,4 0,0
10.12.2018 09:00:00 2,5 0,2 0,0
10.12.2018 08:00:00 2,5 0,3 0,0
10.12.2018 07:00:00 2,6 0,5 0,2
10.12.2018 06:00:00 2,4 0,6 0,0
10.12.2018 05:00:00 2,3 0,3 0,0
10.12.2018 04:00:00 2,3 0,8 0,0
10.12.2018 03:00:00 2,3 0,8 0,0
10.12.2018 02:00:00 2,5 1,2 0,0
10.12.2018 01:00:00 2,3 1,3 0,0
10.12.2018 00:00:00 2,4 1,4 0,0
09.12.2018 23:00:00 2,2 1,4 0,0
09.12.2018 22:00:00 1,6 0,8 2,2
09.12.2018 21:00:00 2,8 1,6 0,0
09.12.2018 20:00:00 2,6 1,5 0,8
09.12.2018 19:00:00 1,9 0,6 0,6
09.12.2018 18:00:00 1,9 -0,2 0,0
09.12.2018 17:00:00 2,1 0,3 0,0
09.12.2018 16:00:00 3,3 1,2 0,8
09.12.2018 15:00:00 4,3 1,0 0,0
09.12.2018 14:00:00 4,7 0,4 0,0
09.12.2018 13:00:00 4,5 0,8 0,0
09.12.2018 12:00:00 4,5 0,5 0,0
09.12.2018 11:00:00 4,7 -0,5 0,0
09.12.2018 10:00:00 3,1 -0,4 0,0
09.12.2018 09:00:00 4,5 0,2 0,0
09.12.2018 08:00:00 4,5 2,9 0,0
09.12.2018 07:00:00 3,4 2,3 1,0
09.12.2018 06:00:00 4,2 2,7 1,0
09.12.2018 05:00:00 4,8 2,5 0,0
09.12.2018 04:00:00 4,7 2,7 0,0
09.12.2018 03:00:00 4,8 2,4 0,0
09.12.2018 02:00:00 4,9 3,6 0,2
09.12.2018 01:00:00 4,7 4,0 2,0
09.12.2018 00:00:00 5,2 3,8 0,0
08.12.2018 23:00:00 4,7 3,6 0,2
08.12.2018 22:00:00 5,4 4,3 0,2
08.12.2018 21:00:00 5,3 4,3 0,0
08.12.2018 20:00:00 5,2 4,5 0,0
08.12.2018 19:00:00 5,3 4,6 0,2
08.12.2018 18:00:00 5,6 4,6 0,0
08.12.2018 17:00:00 6,0 5,2 0,2
08.12.2018 16:00:00 6,0 5,1 0,6
08.12.2018 15:00:00 6,6 5,5 0,4
08.12.2018 14:00:00 7,5 4,8 0,0
08.12.2018 13:00:00 7,3 4,8 0,0
08.12.2018 12:00:00 7,3 4,5 0,0
08.12.2018 11:00:00 7,3 4,4 0,0
08.12.2018 10:00:00 7,0 4,5 0,0
08.12.2018 09:00:00 6,9 4,9 0,0
08.12.2018 08:00:00 7,0 5,1 0,4
08.12.2018 07:00:00 6,8 5,3 0,8
08.12.2018 06:00:00 7,3 4,4 0,0
08.12.2018 05:00:00 7,3 4,5 0,0
08.12.2018 04:00:00 6,7 4,8 0,4
08.12.2018 03:00:00 7,0 4,1 0,2
08.12.2018 02:00:00 7,1 4,4 0,4
08.12.2018 01:00:00 8,0 3,8 0,0
08.12.2018 00:00:00 7,8 3,5 0,0
07.12.2018 23:00:00 6,5 3,3 0,0
07.12.2018 22:00:00 7,2 3,4 0,0
07.12.2018 21:00:00 6,6 4,1 0,2
07.12.2018 20:00:00 7,1 2,5 0,0
07.12.2018 19:00:00 5,8 2,3 0,0
07.12.2018 18:00:00 5,2 1,6 0,0
07.12.2018 17:00:00 5,9 1,1 0,0
07.12.2018 16:00:00 6,7 0,9 0,0
07.12.2018 15:00:00 7,1 1,1 0,0
07.12.2018 14:00:00 7,5 1,2 0,0
07.12.2018 13:00:00 7,6 1,4 0,0
07.12.2018 12:00:00 7,3 2,0 0,0
07.12.2018 11:00:00 7,2 1,9 0,0
07.12.2018 10:00:00 5,6 2,6 0,0
07.12.2018 09:00:00 7,1 3,1 0,0
07.12.2018 08:00:00 7,8 6,1 0,0
07.12.2018 07:00:00 8,6 7,4 0,0
07.12.2018 06:00:00 8,0 7,1 0,0
07.12.2018 05:00:00 7,5 6,1 0,2
07.12.2018 04:00:00 7,0 5,8 0,2
07.12.2018 03:00:00 6,6 5,6 0,0
07.12.2018 02:00:00 5,7 4,2 0,0
07.12.2018 01:00:00 4,2 2,9 0,0
07.12.2018 00:00:00 3,4 2,7 0,0
06.12.2018 23:00:00 3,8 3,5 0,0
06.12.2018 22:00:00 1,3 0,9 0,0
06.12.2018 21:00:00 2,6 2,2 0,0
06.12.2018 20:00:00 2,3 1,8 0,0
06.12.2018 19:00:00 3,6 2,3 0,0
06.12.2018 18:00:00 6,4 4,1 0,0
06.12.2018 17:00:00 3,4 2,6 0,0
06.12.2018 16:00:00 7,4 4,8 0,0
06.12.2018 15:00:00 6,7 6,5 0,0
06.12.2018 14:00:00 7,0 6,3 0,0
06.12.2018 13:00:00 7,3 6,7 0,0
06.12.2018 12:00:00 6,8 6,2 0,0
06.12.2018 11:00:00 5,9 5,5 0,0
06.12.2018 10:00:00 5,6 5,2 0,2
06.12.2018 09:00:00 6,1 6,1 1,6
06.12.2018 08:00:00 5,7 5,7 0,6
06.12.2018 07:00:00 5,1 5,1 0,0
06.12.2018 06:00:00 4,2 4,2 0,0
06.12.2018 05:00:00 1,8 1,8 0,2
06.12.2018 04:00:00 1,0 1,0 0,0
06.12.2018 03:00:00 0,8 0,8 0,0
06.12.2018 02:00:00 0,8 0,8 0,2
06.12.2018 01:00:00 0,6 0,6 0,0
06.12.2018 00:00:00 0,5 0,4 0,2
05.12.2018 23:00:00 0,4 0,4 0,0
05.12.2018 22:00:00 0,2 0,2 0,0
05.12.2018 21:00:00 0,0 -0,1 0,0
05.12.2018 20:00:00 -0,3 -0,4 0,0
05.12.2018 19:00:00 -0,4 -0,5 0,0
05.12.2018 18:00:00 -1,0 -1,2 0,0
05.12.2018 17:00:00 -1,6 -1,8 0,0
05.12.2018 16:00:00 -2,4 -2,7 0,0
05.12.2018 15:00:00 -2,8 -3,3 0,0
05.12.2018 14:00:00 -2,4 -2,8 0,0
05.12.2018 13:00:00 -2,5 -2,7 0,0
05.12.2018 12:00:00 -3,7 -4,1 0,0
05.12.2018 11:00:00 -4,8 -5,3 0,0
05.12.2018 10:00:00 -5,9 -6,4 0,0
05.12.2018 09:00:00 -6,7 -7,4 0,0
05.12.2018 08:00:00 -6,6 -7,3 0,0
05.12.2018 07:00:00 -6,3 -6,9 0,0
05.12.2018 06:00:00 -6,0 -6,8 0,0
05.12.2018 05:00:00 -5,3 -5,8 0,0
05.12.2018 04:00:00 -5,3 -6,0 0,0
05.12.2018 03:00:00 -4,7 -5,2 0,0
05.12.2018 02:00:00 -5,0 -5,5 0,0
05.12.2018 01:00:00 -4,9 -5,5 0,0

tt = Temperatura
td = dewpoint
rr = precipitazioni

Stazioni seguenti

WeatherPro
AMSI
MeteoEarth